This demonstration page uses our WeatherBlox Daily Observations layout. Learn more.

Left ArrowRight Arrow

44.8408, -93.29828

Hourly Observations for November 20, 2019

Temp ( °F °C ) Dew Point ( °F °C ) Humidity (%) Winds ( mph kmh ) Pressure ( in mb ) Visibility ( mi km ) Precip ( " mm )
12:53 am 00:53 Cloudy 40 4.4 36 2.2 86 86 Calm 30.03 1017 10 16 0.00 0.00
1:53 am 01:53 Cloudy 39 3.9 35 1.7 86 86 WSW 5 7 30.05 1018 10 16 0.00 0.00
2:53 am 02:53 Cloudy 40 4.4 35 1.7 83 83 Calm 30.05 1018 10 16 0.00 0.00
3:53 am 03:53 Cloudy 39 3.9 35 1.7 86 86 Calm 30.06 1018 10 16 0.00 0.00
4:53 am 04:53 Cloudy 38 3.3 35 1.7 89 89 SSE 3 6 30.05 1018 10 16 0.00 0.00
5:53 am 05:53 Cloudy 38 3.3 34 1.1 86 86 SE 5 7 30.06 1018 10 16 0.00 0.00
6:53 am 06:53 Cloudy 38 3.3 34 1.1 86 86 SSE 5 7 30.07 1018 10 16 0.00 0.00
7:24 am 07:24 Mostly Sunny 38 3.3 33 0.6 83 83 SE 3 6 30.07 1018 10 16 0.00 0.00
7:53 am 07:53 Mostly Sunny 38 3.3 34 1.1 86 86 SE 5 7 30.06 1018 7 11 0.00 0.00
8:53 am 08:53 Partly Cloudy 40 4.4 34 1.1 79 79 ESE 9 15 30.06 1018 10 16 0.00 0.00
9:53 am 09:53 Mostly Cloudy with Haze 40 4.4 35 1.7 83 83 SE 14 22 30.06 1018 6 10 0.00 0.00
10:06 am 10:06 Cloudy with Haze 40 4.4 35 1.7 83 83 SE 12 19 30.07 1018 5 8 0.00 0.00
10:31 am 10:31 Cloudy with Mist and Fog 39 3.9 35 1.7 86 86 ESE 12 19 30.07 1018 3 5 0.00 0.00
10:53 am 10:53 Cloudy with Mist and Fog 40 4.4 36 2.2 86 86 SE 14 22 30.05 1018 3 5 0.00 0.00
11:53 am 11:53 Cloudy with Mist and Fog 40 4.4 36 2.2 86 86 ESE 13 20 30.01 1016 5 8 0.00 0.00
12:10 pm 12:10 Cloudy with Mist and Fog 41 5 36 2.2 82 82 ESE 13 20 30.01 1016 6 10 0.00 0.00
12:35 pm 12:35 Mostly Cloudy with Mist and Fog 43 6.1 37 2.8 80 80 ESE 14 22 29.99 1016 8 13 0.00 0.00
12:53 pm 12:53 Mostly Cloudy 43 6.1 37 2.8 80 80 ESE 13 20 29.97 1015 10 16 0.00 0.00
1:00 pm 13:00 Mostly Cloudy 44 6.7 37 2.8 76 76 ESE 12 19 29.97 1015 10 16 0.00 0.00
1:33 pm 13:33 Mostly Cloudy 44 6.7 37 2.8 76 76 ESE 15 24 29.95 1014 9 14 0.00 0.00
1:43 pm 13:43 Partly Cloudy 44 6.7 37 2.8 76 76 E 13 20 29.95 1014 10 16 0.00 0.00
1:53 pm 13:53 Partly Cloudy 45 7.2 37 2.8 74 74 ESE 14 22 29.94 1014 10 16 0.00 0.00
2:14 pm 14:14 Mostly Cloudy 44 6.7 37 2.8 76 76 ESE 15 24 29.93 1014 10 16 0.00 0.00
2:40 pm 14:40 Partly Cloudy 45 7.2 37 2.8 74 74 ESE 15 24 29.92 1013 10 16 0.00 0.00
2:53 pm 14:53 Mostly Cloudy 45 7.2 37 2.8 74 74 ESE 17 28 29.91 1013 10 16 0.00 0.00
3:53 pm 15:53 Mostly Cloudy 45 7.2 37 2.8 74 74 ESE 21 33 29.89 1012 10 16 0.00 0.00
4:53 pm 16:53 Cloudy 43 6.1 37 2.8 80 80 ESE 16 26 29.85 1011 10 16 0.00 0.00
5:53 pm 17:53 Cloudy 43 6.1 37 2.8 80 80 ESE 13 20 29.85 1011 10 16 0.00 0.00
6:53 pm 18:53 Cloudy 42 5.6 37 2.8 82 82 SE 12 19 29.86 1011 9 14 0.00 0.00
7:53 pm 19:53 Cloudy 43 6.1 37 2.8 80 80 SE 10 17 29.84 1011 8 13 0.00 0.00
8:53 pm 20:53 Cloudy 43 6.1 37 2.8 80 80 ESE 8 13 29.82 1010 9 14 0.00 0.00
9:53 pm 21:53 Cloudy 43 6.1 37 2.8 80 80 ESE 8 13 29.80 1009 9 14 0.00 0.00
10:53 pm 22:53 Cloudy 44 6.7 38 3.3 79 79 ESE 8 13 29.77 1008 9 14 0.00 0.00
11:53 pm 23:53 Cloudy 43 6.1 38 3.3 82 82 ENE 6 9 29.74 1007 9 14 0.00 0.00

Powered by AerisWeather